www.pogodaiklimat.ru

Погода и климат >> Архив погоды >> Мозамбик >> Quelimane


ПОГОДА в Quelimane

  • Прогноз погоды в Quelimane
  • Монитор погоды в Quelimane
  • Климат города

АРХИВ ПОГОДЫ в Quelimane

Время (UTC), дата Ветер
(напр.,м/с)
 
Видим.   Явления Облачность Т
(С)
Тd
(С)
f
(%)
Тe
(С)
Тes
(С)
Комфортность P
(гПа)
Po
(гПа)
Тmin
(С)
Tmax
(С)
R
(мм)
R24
(мм)
S
(см)
03 18.05 З 1 30 км 9/6 600 м
[Cu med, cong Ac trans]
+22.2 +21.3 95 +29 +29 очень
душно
1016.7 1017.0
06 18.05 З 2 30 км 6/5 300 м
[Cu med, cong Ac trans]
+23.8 +22.0 90 +31 +33 очень
душно
1018.1 1018.0 +22.2 0.3
09 18.05 Ю 5 30 км в посл. час морось 8/6 300 м
[Cu med, cong Ac trans]
+27.6 +21.3 69 +35 +37 очень
душно
1017.6 1018.0
12 18.05 Ю 4 30 км {дождь, морось} 6/6 600 м
[Cu med, cong Ac trans]
+27.6 +20.3 64 +34 +36 очень
душно
1016.1 1016.0 1
15 18.05 Ю 4 30 км 8/6 600 м
[Cu med, cong Ac trans]
+26.3 +20.5 70 +33 +33 очень
душно
1016.0 1016.0
18 18.05 Ю 5 30 км 5/3 600 м
[Cu med, cong Ac trans]
+23.6 +21.8 90 +30 +30 очень
душно
1017.3 1017.0 +28.6 1
21 18.05 Ю 3 30 км 1/1 600 м
[Cu med, cong]
+22.8 +21.6 93 +30 +30 очень
душно
1018.7 1019.0
00 19.05 ЮЗ 3 30 км ясно +22.0 +21.4 96 +29 +29 очень
душно
1017.3 1017.0
03 19.05 З 2 30 км ясно +21.2 +20.6 96 +26 +26 душно 1018.0 1018.0
06 19.05 З 4 30 км 1/1 600 м
[Cu med, cong]
+21.0 +18.8 87 +26 +28 душно 1019.2 1019.0 +18.4 1
09 19.05 ЮЗ 4 30 км 6/6 600 м
[Cu med, cong]
+27.2 +19.4 62 +33 +37 очень
душно
1018.3 1018.0
12 19.05 Ю 4 30 км 6/6 300 м
[Cu med, cong]
+27.5 +18.7 59 +33 +35 очень
душно
1016.5 1017.0
15 19.05 ЮЗ 4 30 км 4/4 600 м
[Cu med, cong Ac trans]
+25.6 +19.1 67 +31 +31 очень
душно
1016.8 1017.0
18 19.05 З 2 30 км 1/0
[Ac trans]
+22.8 +19.7 83 +29 +29 очень
душно
1018.1 1018.0 +29.2
21 19.05 З 1 30 км ясно +21.2 +19.3 89 +26 +26 душно 1018.0 1018.0
00 20.05 СЗ 2 30 км ясно +19.6 +18.3 92 +23 +23 комфорт 1016.9 1017.0
03 20.05 З 2 30 км 1/1 600 м
[Cu hum Ac trans]
+18.2 +17.2 94 +19 +19 1016.8 1017.0
06 20.05 З 4 20 км 10/10 300 м
[]
+19.8 +18.5 92 +23 +23 комфорт 1018.5 1019.0 +18.2
09 20.05 З 3 30 км 8/6 600 м
[Cu med, cong Ac trans]
+24.6 +20.6 78 +31 +34 очень
душно
1017.8 1018.0
12 20.05 З 3 30 км 5/5 600 м
[Cu med, cong Ac trans]
+27.5 +20.5 66 +34 +38 очень
душно
1015.4 1015.0
15 20.05 ЮВ 3 30 км 4/4 600 м
[Cu med, cong]
+27.0 +21.3 71 +34 +34 очень
душно
1015.0 1015.0
18 20.05 ЮВ 2 30 км ясно +24.6 +20.0 76 +30 +30 очень
душно
1016.9 1017.0 +28.0
21 20.05 штиль 0 30 км ясно +22.2 +20.0 87 +28 +28 душно 1017.0 1017.0
00 21.05 СЗ 2 30 км ясно +20.4 +19.1 92 +25 +25 комфорт 1016.0 1016.0
03 21.05 СЗ 2 30 км 4/4 200 м
[St]
+18.6 +18.0 96 +20 +20 1016.4 1016.0
06 21.05 З 2 900 м туман 6/6 200 м
[St]
+20.2 +19.3 95 +25 +26 комфорт 1018.5 1019.0 +18.6
09 21.05 З 2 30 км 6/6 600 м
[Cu med, cong]
+26.4 +22.6 80 +35 +41 очень
душно
1017.9 1018.0
12 21.05 В 3 30 км 6/6 600 м
[Cu med, cong]
+27.8 +20.6 65 +35 +37 очень
душно
1015.5 1016.0
15 21.05 ЮВ 3 30 км 1/1 600 м
[Cu med, cong]
+26.2 +20.4 70 +32 +32 очень
душно
1016.3 1016.0
18 21.05 ЮВ 2 30 км 1/1 600 м
[Cu hum]
+21.2 +21.2 100 +27 +27 душно 1017.3 1017.0 +29.4
21 21.05 СВ 2 30 км ясно +23.0 +21.5 91 +31 +31 очень
душно
1017.3 1017.0
00 22.05 СЗ 1 30 км ясно +21.0 +20.1 95 +27 +27 душно 1016.7 1017.0
03 22.05 З 2 30 км ясно +18.6 +18.0 96 +20 +20 1017.4 1017.0
06 22.05 З 2 20 км в посл. час туман 9/8 200 м
[Cu med, cong Ac trans]
+20.6 +20.0 96 +26 +26 душно 1019.5 1020.0 +18.4
09 22.05 Ю 1 30 км 8/8 600 м
[Cu med, cong]
+27.3 +22.1 73 +35 +38 очень
душно
1018.7 1019.0
12 22.05 ЮВ 3 30 км 4/4 600 м
[Cu med, cong]
+29.0 +21.3 63 +37 +41 очень
душно
1016.5 1017.0
15 22.05 ЮВ 3 30 км 4/4 600 м
[Cu med, cong Ac trans]
+26.4 +21.0 72 +33 +33 очень
душно
1017.4 1017.0
18 22.05 ЮВ 2 30 км 3/1 600 м
[Cu med, cong Ac trans]
+24.4 +22.0 86 +31 +31 очень
душно
1019.2 1019.0 +29.8
21 22.05 В 1 30 км 4/4 600 м
[Cu med, cong Ac trans]
+24.0 +21.3 85 +30 +30 очень
душно
1019.7 1020.0
00 23.05 З 1 30 км 6/6 600 м
[Cu med, cong Ac trans]
+21.8 +20.9 95 +28 +28 душно 1019.1 1019.0
03 23.05 штиль 0 30 км 3/3 600 м
[Cu med, cong]
+20.0 +19.0 94 +23 +23 комфорт 1019.4 1019.0
06 23.05 ЮЗ 1 30 км 9/3 600 м
[Cu med, cong Ac trans]
+20.8 +19.5 92 +26 +28 душно 1021.3 1021.0 +19.8
09 23.05 ЮВ 5 30 км 5/5 600 м
[Cu med, cong Ac trans]
+28.6 +21.0 63 +36 +40 очень
душно
1021.0 1021.0
15 23.05 ЮВ 4 30 км 3/3 600 м
[Cu med, cong]
+26.6 +19.9 67 +33 +33 очень
душно
1018.7 1019.0
18 23.05 ЮВ 2 30 км 3/1 600 м
[Cu med, cong Ac trans]
+24.0 +20.3 80 +30 +30 очень
душно
1020.2 1020.0 +30.0
21 23.05 штиль 0 30 км 6/0
[Ac trans]
+23.4 +20.7 85 +31 +31 очень
душно
1020.1 1020.0
00 24.05 З 1 30 км 3/0
[Ac trans]
+21.8 +19.6 87 +27 +27 душно 1019.2 1019.0
03 24.05 З 1 30 км 5/5 600 м
[Cu med, cong Ac trans]
+20.6 +19.3 92 +26 +26 душно 1019.2 1019.0
06 24.05 З 2 30 км 9/3 600 м
[Cu med, cong Ac trans]
+22.4 +20.6 90 +29 +30 очень
душно
1020.5 1021.0 +20.2
09 24.05 ЮВ 2 30 км 9/6 600 м
[Cu med, cong Ac trans]
+28.0 +20.8 65 +35 +38 очень
душно
1019.7 1020.0
12 24.05 Ю 3 30 км 6/4 600 м
[Cu med, cong Ac trans]
+28.8 +20.0 59 +35 +38 очень
душно
1017.3 1017.0
15 24.05 ЮВ 3 30 км 5/3 600 м
[Cu med, cong Ac trans]
+26.2 +20.1 69 +32 +32 очень
душно
1017.0 1017.0
18 24.05 ЮВ 2 30 км 5/0
[Ac trans]
+24.6 +21.0 80 +31 +31 очень
душно
1017.8 1018.0 +31.2
21 24.05 З 1 30 км 6/0
[Ac trans]
+23.2 +20.8 86 +31 +31 очень
душно
1018.0 1018.0

 

Местоположение метеостанции Quelimane (Мозамбик): широта -17.88 долгота 36.88 высота над уровнем моря 16 м.

В архиве по умолчанию представлена погода в Quelimane за последнюю неделю. Архивные данные за месяц целиком и за предыдущие месяцы, начиная с января 2011 года, Вы можете получить, выбрав интересующий диапазон дат из раскрывающегося списка и нажав кнопку "Ввод!".


*Определитесь, кто Вы:
робот инопланетянин человек

Внимание! Время в таблицах - всемирное. Для получения местного времени необходимо прибавить поправку, которая в Quelimane равна 2 ч.

Смотрите также архив погоды в соседних городах и на ближайших метеорологических станциях:

Погода в Pebane (Мозамбик) (151 км)
Погода в Caia (Мозамбик) (164 км)
Погода в Bvumbwe (Малави) (291 км)
Погода в Beira (Мозамбик) (298 км)
Погода в Chichiri (Малави) (306 км)
Погода в Chileka (Малави) (318 км)
Погода в Cuamba (Мозамбик) (341 км)
Погода в Songo (Мозамбик) (364 км)
Погода в Angoche (Мозамбик) (370 км)
Погода в Chimoio (Мозамбик) (385 км)

Пояснения к столбцам:

Ветер - указаны скорость ветра в м/с - средняя за 10 мин, порывы в срок и между сроками (в фигурных скобках) и направление, откуда дует ветер: С - северный, СВ - северо-восточный, В - восточный, ЮВ - юго-восточный, Ю - южный, ЮЗ - юго-западный, З - западный, СЗ - северо-западный.
Видимость - горизонтальная дальность видимости в метрах или километрах. При видимости от 1 до 10 км при отсутствии осадков обычно наблюдается дымка, при ухудшении видимости до 1 км и менее - туман. В сухую погоду видимость может ухудшаться дымом, пылью или мглою.
Явления - указаны атмосферные явления, наблюдавшиеся в срок или в последний час перед сроком; фигурными скобками обозначены явления, наблюдавшиеся между сроками (за 1-3 часа до срока); квадратными скобками обозначены град или гололедные отложения с указанием их диаметра в мм.
Облачность - указаны через наклонную черту общая и нижняя облачность в баллах и высота нижней границы облаков в метрах; квадратными скобками обозначены формы облаков: Ci - перистые, Cs - перисто-слоистые, Cc - перисто-кучевые, Ac - высококучевые, As - высокослоистые, Sc - слоисто-кучевые, Ns - слоисто-дождевые, Cu - кучевые, Cb - кучево-дождевые. Подробнее классификацию облаков см. в Атласе облаков (PDF).
T - Температура воздуха - температура, измеренная на высоте 2 м над землей.
Td - Температура точки росы - температура, при понижении до которой содержащийся в воздухе водяной пар достигнет насыщения.
f - Относительная влажность воздуха - влажноcть воздуха, измеренная на высоте 2 м над землей.
Te - Эффективная температура - температура, которую ощущает одетый по сезону человек в тени. Характеристика душности погоды. При расчете учитывается влияние влажности воздуха и скорости ветра на теплоощущения человека.
Tes - Эффективная температура на солнце - температура, которую ощущает человек, с поправкой на солнечный нагрев. Характеристика знойности погоды. Зависит от высоты солнца над горизонтом, облачности и скорости ветра. Ночью, в пасмурную погоду, а также при ветре 12 м/с и более поправка равна нулю.
P - Атмосферное давление - приведенное к уровню моря атмосферное давление.
Po - Атмосферное давление - измеренное на уровне метеостанции атмосферное давление.
Tmin - Минимальная температура - минимум температуры воздуха на высоте 2 м над землей.
Tmax - Максимальная температура - максимум температуры воздуха на высоте 2 м над землей.
R - Количество осадков - Количество выпавших осадков за период времени, мм. При наведении курсора мыши на число - период времени, за который выпало указанное количество осадков.
R24 - Количество осадков - Количество выпавших осадков за 24 часа, мм.
S - Снежный покров - Высота снежного покрова, см. При наведении курсора мыши на число - состояние снежного покрова и степень покрытия местности в баллах.